Location: De Har
(53.3413°N, 6.6858°E)
Time: 07:36:07
(UTC+00:00)

Cosmos 1452 Rocket - Pass Details

Date: 22 April 2026
Orbit: 764 x 769 km, 74.1° (Epoch: 15 May)

Event Time Altitude Azimuth Distance (km) Brightness Sun altitude
Exits shadow 00:58:56 33° 260° (W) 1,283 4.3 -21.9°
Maximum altitude 01:00:42 44° 305° (NW) 1,059 4.2 -21.8°
Drops below altitude 10° 01:05:42 10° 18° (NNE) 2,312 7.1 -21.5°
Sets 01:08:12 0° 25° (NNE) 3,242 8.3 -21.3°
